Regional Weather Roundup
Issued by NWS

Home | Current Version | Previous Version | Graphics & Text | Print | Product List | Glossary On
Versions: 1 2 3 4 5 6 7 8 9 10 11 12 13 14 15 16 17 18 19 20 21 22 23 24 25 26 27 28 29 30 31 32 33 34 35 36 37 38 39 40 41 42 43 44 45 46 47 48 49
000
ASUS43 KDMX 201007
RWRIA

WEATHER ROUNDUP FOR IOWA
NATIONAL WEATHER SERVICE DES MOINES IA
500 AM CDT WED AUG 20 2014

NOTE: "FAIR" INDICATES FEW OR NO CLOUDS BELOW 12,000 FEET WITH NO
SIGNIFICANT WEATHER AND/OR OBSTRUCTIONS TO VISIBILITY.

* - THESE STATIONS ARE NOT NWS STATIONS...THUS NOT UNDER NWS
QUALITY CONTROL.  THEY ALSO DO NOT REPORT WEATHER SUCH
AS PRECIPITATION OR FOG.

IAZ001>003-012>014-020>022-031>034-043>046-201100-
   NORTHWEST IOWA

CITY           SKY/WX    TMP DP  RH WIND       PRES   REMARKS
CARROLL *      RAIN      66  66 100 VRB5      29.80F
CHEROKEE *     LGT RAIN  66  64  94 CALM      29.82R
DENISON *      CLOUDY    70  68  94 E5        29.77F
LE MARS *      CLOUDY    70  66  88 VRB3      29.80R
ORANGE CITY *  PTCLDY    68  63  83 E5        29.79F
SHELDON *      PTCLDY    63  63 100 S6        29.81R
SIOUX CITY     TSTM      71  67  87 E14       29.75F
SPENCER        PTCLDY    62  60  93 CALM      29.82R FOG
STORM LAKE *   MOCLDY    66  66 100 S6        29.83R
$$

IAZ055>058-069>071-079>083-090>094-201100-
   SOUTHWEST IOWA

CITY           SKY/WX    TMP DP  RH WIND       PRES   REMARKS
ATLANTIC *     MOCLDY    72  64  78 VRB3G13   29.77F
AUDUBON *      CLOUDY    72  68  88 E5        29.79F
CLARINDA *     CLEAR     70  70 100 SW5       29.78F
COUNCIL BLFS *   N/A     72  70  94 SE7       29.76S
CRESTON *      CLOUDY    72  68  88 N15       29.85R
HARLAN  *      CLEAR     72  68  88 VRB5      29.79F
LAMONI         MOCLDY    73  68  84 SE3       29.81S
RED OAK *      CLOUDY    72  70  94 N6        29.78S
SHENANDOAH *   PTCLDY    72  70  94 CALM      29.76F
$$

IAZ047>049-059>061-072>074-084-201100-
   CENTRAL IOWA

CITY           SKY/WX    TMP DP  RH WIND       PRES   REMARKS
AMES           MOCLDY    64  64 100 CALM      29.82R FOG
ANKENY *       MOCLDY    68  66  94 SW10      29.85R
CHARITON *     CLOUDY    70  66  88 E6        29.82S
DES MOINES     HAIL      70  67  90 W31G46    29.88R VSB 3/4
GRINNELL*      MOCLDY    64  63  94 CALM      29.84R
KNOXVILLE *    MOCLDY    68  64  88 SE3       29.81S
MARSHALLTOWN   CLEAR     63  61  93 S3        29.83R
PELLA *        PTCLDY    66  66 100 CALM      29.84R
PERRY *          N/A     66  64  94 SE7       29.81F
$$

IAZ004>006-015-016-023>025-035-036-201100-
   NORTH CENTRAL IOWA

CITY           SKY/WX    TMP DP  RH WIND       PRES   REMARKS
ALGONA *       CLEAR     64  63  94 E3        29.81S
CLARION *      CLEAR     61  61 100 S6        29.81F
ESTHERVILLE    PTCLDY    59  59 100 CALM      29.80S
FORT DODGE *   PTCLDY    63  61  94 CALM      29.82F
MASON CITY     CLEAR     61  60  97 N3        29.82F
FOREST CITY *  PTCLDY    59  59 100 NE5       29.80F FOG
IOWA FALLS *     N/A     63  59  88 CALM      29.83R
$$

IAZ007>011-017>019-026>030-037>042-050>054-066-201100-
   NORTHEAST IOWA

CITY           SKY/WX    TMP DP  RH WIND       PRES   REMARKS
CEDAR RAPIDS   CLEAR     61  60  97 CALM      29.82R FOG
CHARLES CITY * CLEAR     63  63 100 N5        29.82F FOG
CLINTON *      CLEAR     61  59  94 CALM      29.85S
DECORAH *      CLOUDY    63  63 100 CALM      29.82S
DUBUQUE        CLEAR     62  61  96 CALM      29.82F
MONTICELLO *   CLEAR     59  59 100 CALM      29.82S
OELWEIN *      CLEAR     64  63  94 NW5       29.82F
WATERLOO       CLEAR     62  60  93 CALM      29.80F
$$

IAZ064-065-067-068-078-201100-
   EAST CENTRAL IOWA

CITY           SKY/WX    TMP DP  RH WIND       PRES   REMARKS
DAVENPORT      CLEAR     60  58  92 SW3       29.83F
IOWA CITY      CLEAR     61  60  97 S3        29.84R
MT. PLEASANT * PTCLDY    63  63 100 S3        29.85S
MUSCATINE *    CLEAR     61  59  94 CALM      29.84R
QUAD CITIES    CLEAR     62  60  93 CALM      29.82S
$$

IAZ062-063-075>077-085>089-095>099-201100-
   SOUTHEAST IOWA

CITY           SKY/WX    TMP DP  RH WIND       PRES   REMARKS
BURLINGTON     FOG       66  66 100 CALM      29.84S VSB 3/4
FAIRFIELD *    LGT RAIN  68  64  88 S7        29.84S
FORT MADISON * PTCLDY    70  70 100 CALM      29.85S
KEOKUK *       MOCLDY    70  70 100 VRB5      29.83F
OSKALOOSA *      N/A     66  64  94 S3        29.84R
CENTERVILLE *  CLEAR     68  68 100 SE6       29.85S
OTTUMWA        PTCLDY    67  65  93 SE5       29.83R
WASHINGTON *   CLEAR     63  63 100 CALM      29.84S FOG
$$

ABBREVIATIONS USED IN REMARKS
   TC - TEMPERATURES IN CELSIUS
  WCI - WIND CHILL INDEX
   HX - HEAT INDEX
  VSB - VISIBILITY
$$



USA.gov is the U.S. government's official web portal to all federal, state and local government web resources and services.